Погода в Евдокимовской

Россия / Архангельская область     62°24′23″N   43°53′15″E
темп.,
°C
ветер,
м/с
пор.,
м/с
влажн.,
%
обл.,
%
осадки,
мм/ч
давл.,
гПа
погр.,
м
25 июля, вс
вс2500:00+8з227977 0.0 101238
03:00+10юз2469100 0.0 1012114
06:00+11зюз276798 0.0 1012328
09:00+17з36445 0.0 10121488
12:00+19з353597 0.0 10132248
15:00+19зсз364083 0.0 10132040
18:00+17з49526 0.0 10141222
21:00+14з2673100 0.1 1014203
26 июля, пн
пн2600:00+13юз2677100 0.1 1015152
03:00+12зсз2585100 0.1 1015162
06:00+14зсз137860 0.0 1015270
09:00+18з476097 0.0 10141164
12:00+14з4993100 2.0 1015699
15:00+15сз59875 3.1 10151037
18:00+17сз59475 0.3 10151480
21:00+13сз49560 0.3 1016486
27 июля, вт
вт2700:00+8с27765 0.0 1018164
03:00+5зсз28855 0.0 1019177
06:00+9зсз31073100 0.0 1019413
09:00+15сз57545 0.0 10181049
12:00+19сз583933 0.0 10172207
15:00+20сз693325 0.0 10162646
18:00+19сз59385 0.0 10161969
21:00+13сз26595 0.0 1016131
28 июля, ср
ср2800:00+9ссз22765 0.0 101634
03:00+6с118721 0.0 101610
06:00+11юз11666 0.0 1015154
09:00+16з2451100 0.0 1013756
12:00+11юз3896100 2.7 1011337
15:00+16ююз367699 3.9 1008425
18:00+17св11835 1.3 1006114
21:00+12юв24986 2.8 100578
29 июля, чт
чт2900:00+11всв119815 0.2 100516
03:00+10вюв119868 0.2 100410
06:00+12всв129561 0.0 1004113
09:00+17вюв227992 0.0 1004541
12:00+22ююв3350100 0.0 1002950
15:00+17всв3681100 0.8 1001189
18:00+17ююв479499 2.6 1000278
21:00+15ю3897100 9.4 999194